El Paso, TX

12:48 AM MDT on April 25, 2017 (GMT -0600)
El Paso International

Weather History for KELP - June, 2013

Change the Weather History Date:

Wednesday, June 5, 2013

  Actual Average Record
Temperature  
Mean Temperature 86 °F 80 °F  
Max Temperature 99 °F 94 °F 107 °F (2014)
Min Temperature 73 °F 66 °F 50 °F (1985)
Degree Days  
Heating Degree Days 0 0  
Month to date heating degree days 0 0  
Since 1 June heating degree days 0 0  
Since 1 July heating degree days 2219 2474  
Cooling Degree Days 21 15  
Month to date cooling degree days 95 72  
Year to date cooling degree days 603 449  
Since 1 June cooling degree days 95 72  
Growing Degree Days 36 (Base 50)    
Moisture  
Dew Point 23 °F    
Average Humidity 14    
Maximum Humidity 21    
Minimum Humidity 6    
Precipitation  
Precipitation 0.00 in 0.02 in 0.44 in (1972)
Month to date precipitation T 0.10  
Year to date precipitation 0.89 1.92  
Snow  
Snow 0.00 in - - ()
Month to date snowfall 0.0  
Since 1 June snowfall 0.0  
Since 1 July snowfall 3.1  
Snow Depth 0.00 in    
Sea Level Pressure  
Sea Level Pressure 29.68 in    
Wind  
Wind Speed 9 mph (WSW)    
Max Wind Speed 22 mph    
Max Gust Speed 28 mph    
Visibility 10 miles    
Events      
T = Trace of Precipitation, MM = Missing Value Source: NWS Daily Summary

Daily Weather History Graph

Daily Weather History Graph

Search for Another Location

Airport or City:

Trip Planner

Search our weather history database for the weather conditions in past years. The results will help you decide how hot, cold, wet, or windy it might be!

Date:

Astronomy

Jun. 05, 2013 Rise Set
Actual Time 5:59 AM MDT 8:08 PM MDT
Civil Twilight 5:31 AM MDT 8:36 PM MDT
Nautical Twilight 4:57 AM MDT 9:10 PM MDT
Astronomical Twilight 4:21 AM MDT 9:47 PM MDT
Moon 3:57 AM MDT (6/5) 5:44 PM MDT (6/5)
Length of Visible Light 15h 04m
Length of Day
14h 08m
Waning Crescent, 8% of the Moon is Illuminated
Jun 5
Waning Crescent
Jun 8
New
Jun 16
First Quarter
Jun 23
Full
Jun 29
Last Quarter

Hourly Weather History & Observations

Time (MDT) Temp. Dew Point Humidity Pressure Visibility Wind Dir Wind Speed Gust Speed Precip Events Conditions
12:51 AM 88.0 °F 33.1 °F 14% 29.66 in 10.0 mi West 6.9 mph - N/A   Clear
1:51 AM 87.1 °F 30.0 °F 13% 29.65 in 10.0 mi West 15.0 mph - N/A   Clear
2:51 AM 84.9 °F 28.0 °F 13% 29.65 in 10.0 mi WNW 10.4 mph - N/A   Clear
3:51 AM 84.0 °F 28.0 °F 13% 29.65 in 10.0 mi West 10.4 mph - N/A   Clear
4:51 AM 79.0 °F 28.9 °F 16% 29.67 in 10.0 mi ESE 9.2 mph - N/A   Clear
5:51 AM 75.9 °F 28.9 °F 18% 29.69 in 10.0 mi SE 5.8 mph - N/A   Clear
6:51 AM 75.0 °F 33.1 °F 22% 29.71 in 10.0 mi SE 6.9 mph - N/A   Clear
7:51 AM 79.0 °F 33.1 °F 19% 29.72 in 10.0 mi SE 5.8 mph - N/A   Partly Cloudy
8:51 AM 82.9 °F 33.1 °F 17% 29.73 in 10.0 mi Calm Calm - N/A   Partly Cloudy
9:51 AM 88.0 °F 30.0 °F 12% 29.74 in 10.0 mi SSE 3.5 mph - N/A   Partly Cloudy
10:51 AM 93.0 °F 28.0 °F 10% 29.74 in 10.0 mi Variable 3.5 mph - N/A   Partly Cloudy
11:22 AM 93.2 °F 21.2 °F 7% 29.99 in 10.0 mi WSW 11.5 mph 24.2 mph N/A   Partly Cloudy
11:51 AM 93.9 °F 21.0 °F 7% 29.73 in 10.0 mi West 10.4 mph - N/A   Partly Cloudy
12:51 PM 97.0 °F 23.0 °F 7% 29.70 in 10.0 mi West 12.7 mph 21.9 mph N/A   Partly Cloudy
1:51 PM 98.1 °F 19.9 °F 6% 29.68 in 10.0 mi SW 12.7 mph 19.6 mph N/A   Partly Cloudy
2:51 PM 97.0 °F 19.0 °F 6% 29.66 in 10.0 mi West 15.0 mph 23.0 mph N/A   Partly Cloudy
3:51 PM 97.0 °F 19.0 °F 6% 29.64 in 10.0 mi West 9.2 mph 24.2 mph N/A   Partly Cloudy
4:51 PM 97.0 °F 19.0 °F 6% 29.62 in 10.0 mi WSW 15.0 mph 23.0 mph N/A   Partly Cloudy
5:51 PM 96.1 °F 18.0 °F 6% 29.61 in 10.0 mi West 12.7 mph 21.9 mph N/A   Partly Cloudy
6:51 PM 95.0 °F 19.0 °F 6% 29.60 in 10.0 mi WSW 13.8 mph 21.9 mph N/A   Partly Cloudy
7:51 PM 93.0 °F 19.0 °F 7% 29.61 in 10.0 mi WSW 13.8 mph - N/A   Partly Cloudy
8:51 PM 91.0 °F 19.0 °F 7% 29.62 in 10.0 mi WSW 8.1 mph - N/A   Partly Cloudy
9:51 PM 89.1 °F 17.1 °F 7% 29.63 in 10.0 mi NW 8.1 mph - N/A   Clear
10:51 PM 87.1 °F 14.0 °F 7% 29.65 in 10.0 mi North 3.5 mph - N/A   Clear
11:51 PM 84.9 °F 15.1 °F 7% 29.64 in 10.0 mi Calm Calm - N/A   Clear